Time,TemperatureF,DewpointF,PressureIn,WindDirection,WindDirectionDegrees,WindSpeedMPH,WindSpeedGustMPH,Humidity,HourlyPrecipIn,Conditions,Clouds,dailyrainin,SoftwareType,DateUTC
2013-04-25 00:15:00,61.5,54.9,30.06,SW,235,2.0,6.0,79,0.00,CLR,,0.00,WeatherDisplay:10.37,2013-04-25 04:15:00,
2013-04-25 00:31:00,60.9,54.7,30.07,SW,228,2.0,8.0,80,0.00,CLR,,0.00,WeatherDisplay:10.37,2013-04-25 04:31:00,
2013-04-25 00:45:00,60.5,54.6,30.07,WSW,237,1.0,5.0,81,0.00,CLR,,0.00,WeatherDisplay:10.37,2013-04-25 04:45:00,
2013-04-25 01:01:00,60.6,54.7,30.07,SW,236,0.0,6.0,81,0.00,CLR,,0.00,WeatherDisplay:10.37,2013-04-25 05:01:00,
2013-04-25 01:15:00,61.2,55.0,30.08,NNW,332,6.0,13.0,80,0.00,CLR,,0.00,WeatherDisplay:10.37,2013-04-25 05:15:00,
2013-04-25 01:31:00,60.7,53.1,30.09,NNW,338,3.0,12.0,76,0.00,OVC,,0.00,WeatherDisplay:10.37,2013-04-25 05:31:00,
2013-04-25 01:45:00,59.5,50.1,30.10,NNW,336,6.0,14.0,71,0.00,OVC,,0.00,WeatherDisplay:10.37,2013-04-25 05:45:00,
2013-04-25 02:01:00,58.7,49.3,30.11,NNW,330,8.0,15.0,71,0.00,OVC,,0.00,WeatherDisplay:10.37,2013-04-25 06:01:00,
2013-04-25 02:15:00,57.9,48.9,30.10,NNW,338,5.0,12.0,72,0.00,OVC,,0.00,WeatherDisplay:10.37,2013-04-25 06:15:00,
2013-04-25 02:31:00,57.0,47.3,30.10,NNW,344,1.0,14.0,70,0.00,OVC,,0.00,WeatherDisplay:10.37,2013-04-25 06:31:00,
2013-04-25 02:45:00,56.1,46.8,30.10,NW,326,2.0,10.0,71,0.00,OVC,,0.00,WeatherDisplay:10.37,2013-04-25 06:45:00,
2013-04-25 03:01:00,55.5,46.2,30.11,NNW,329,6.0,17.0,71,0.00,OVC,,0.00,WeatherDisplay:10.37,2013-04-25 07:01:00,
2013-04-25 03:15:00,55.5,46.2,30.12,NNW,329,1.0,12.0,71,0.00,OVC,,0.00,WeatherDisplay:10.37,2013-04-25 07:15:00,
2013-04-25 03:31:00,54.7,45.5,30.12,NNW,343,2.0,10.0,71,0.00,BKN,,0.00,WeatherDisplay:10.37,2013-04-25 07:31:00,
2013-04-25 03:45:00,53.8,44.2,30.14,NNW,330,3.0,10.0,70,0.00,BKN,,0.00,WeatherDisplay:10.37,2013-04-25 07:45:00,
2013-04-25 04:01:00,53.1,43.6,30.14,NNW,338,3.0,14.0,70,0.00,BKN,,0.00,WeatherDisplay:10.37,2013-04-25 08:01:00,
2013-04-25 04:15:00,52.5,42.6,30.16,NNW,327,5.0,14.0,69,0.00,BKN,,0.00,WeatherDisplay:10.37,2013-04-25 08:15:00,
2013-04-25 04:31:00,52.1,41.4,30.17,NNW,334,8.0,15.0,67,0.00,BKN,,0.00,WeatherDisplay:10.37,2013-04-25 08:31:00,
2013-04-25 04:45:00,51.5,40.9,30.17,NNW,332,1.0,12.0,67,0.00,BKN,,0.00,WeatherDisplay:10.37,2013-04-25 08:45:00,
2013-04-25 05:01:00,50.8,39.8,30.18,NNW,335,3.0,13.0,66,0.00,BKN,,0.00,WeatherDisplay:10.37,2013-04-25 09:01:00,
2013-04-25 05:15:00,49.6,38.7,30.19,NNW,339,3.0,20.0,66,0.00,BKN,,0.00,WeatherDisplay:10.37,2013-04-25 09:15:00,
2013-04-25 05:31:00,48.7,37.8,30.19,NNW,340,3.0,12.0,66,0.00,OVC,,0.00,WeatherDisplay:10.37,2013-04-25 09:31:00,
2013-04-25 05:45:00,48.2,37.0,30.20,NNW,346,2.0,12.0,65,0.00,OVC,,0.00,WeatherDisplay:10.37,2013-04-25 09:45:00,
2013-04-25 06:01:00,47.9,37.1,30.20,NNW,346,3.0,10.0,66,0.00,OVC,,0.00,WeatherDisplay:10.37,2013-04-25 10:01:00,
2013-04-25 06:15:00,47.7,36.9,30.22,North,353,3.0,13.0,66,0.00,OVC,,0.00,WeatherDisplay:10.37,2013-04-25 10:15:00,
2013-04-25 06:31:00,47.3,35.3,30.23,NNW,336,9.0,17.0,63,0.00,BKN,,0.00,WeatherDisplay:10.37,2013-04-25 10:31:00,
2013-04-25 06:45:00,46.8,35.3,30.24,NNW,337,8.0,16.0,64,0.00,BKN,,0.00,WeatherDisplay:10.37,2013-04-25 10:45:00,
2013-04-25 07:01:00,46.4,35.3,30.25,NW,322,3.0,12.0,65,0.00,BKN,,0.00,WeatherDisplay:10.37,2013-04-25 11:01:00,
2013-04-25 07:15:00,46.4,35.7,30.26,NNW,346,5.0,12.0,66,0.00,BKN,,0.00,WeatherDisplay:10.37,2013-04-25 11:15:00,
2013-04-25 07:31:00,46.4,35.7,30.26,NNW,343,2.0,10.0,66,0.00,SCT,,0.00,WeatherDisplay:10.37,2013-04-25 11:31:00,
2013-04-25 07:45:00,46.5,35.7,30.26,North,357,5.0,9.0,66,0.00,SCT,,0.00,WeatherDisplay:10.37,2013-04-25 11:45:00,
2013-04-25 08:01:00,46.8,36.0,30.27,North,354,2.0,9.0,66,0.00,SCT,,0.00,WeatherDisplay:10.37,2013-04-25 12:01:00,
2013-04-25 08:15:00,47.5,36.3,30.28,NNW,347,3.0,9.0,65,0.00,SCT,,0.00,WeatherDisplay:10.37,2013-04-25 12:15:00,
2013-04-25 08:31:00,48.7,36.2,30.28,NNW,345,5.0,10.0,62,0.00,CLR,,0.00,WeatherDisplay:10.37,2013-04-25 12:31:00,
2013-04-25 08:45:00,49.7,36.8,30.28,NNW,336,5.0,12.0,61,0.00,CLR,,0.00,WeatherDisplay:10.37,2013-04-25 12:45:00,
2013-04-25 09:01:00,50.3,36.9,30.28,North,350,5.0,11.0,60,0.00,CLR,,0.00,WeatherDisplay:10.37,2013-04-25 13:01:00,
2013-04-25 09:15:00,50.4,37.5,30.29,North,359,5.0,12.0,61,0.00,CLR,,0.00,WeatherDisplay:10.37,2013-04-25 13:15:00,
2013-04-25 09:31:00,51.2,36.5,30.28,North,349,2.0,9.0,57,0.00,CLR,,0.00,WeatherDisplay:10.37,2013-04-25 13:31:00,
2013-04-25 09:45:00,52.1,37.4,30.28,North,349,2.0,9.0,57,0.00,CLR,,0.00,WeatherDisplay:10.37,2013-04-25 13:45:00,
2013-04-25 10:01:00,52.6,36.9,30.28,North,357,2.0,9.0,55,0.00,CLR,,0.00,WeatherDisplay:10.37,2013-04-25 14:01:00,
2013-04-25 10:15:00,52.9,36.2,30.28,NNE,12,5.0,13.0,53,0.00,CLR,,0.00,WeatherDisplay:10.37,2013-04-25 14:15:00,
2013-04-25 10:31:00,53.7,36.5,30.28,NNE,24,2.0,10.0,52,0.00,CLR,,0.00,WeatherDisplay:10.37,2013-04-25 14:31:00,
2013-04-25 10:45:00,54.9,36.6,30.28,East,83,5.0,10.0,50,0.00,CLR,,0.00,WeatherDisplay:10.37,2013-04-25 14:45:00,
2013-04-25 11:01:00,55.6,37.3,30.28,ENE,66,3.0,12.0,50,0.00,CLR,,0.00,WeatherDisplay:10.37,2013-04-25 15:01:00,
2013-04-25 11:15:00,55.6,37.7,30.28,NNE,33,2.0,13.0,51,0.00,CLR,,0.00,WeatherDisplay:10.37,2013-04-25 15:15:00,
2013-04-25 11:31:00,56.2,36.8,30.29,NNE,12,3.0,10.0,48,0.00,CLR,,0.00,WeatherDisplay:10.37,2013-04-25 15:31:00,
2013-04-25 11:45:00,57.2,38.2,30.28,North,3,2.0,9.0,49,0.00,CLR,,0.00,WeatherDisplay:10.37,2013-04-25 15:45:00,
2013-04-25 12:01:00,56.9,38.4,30.29,North,10,2.0,10.0,50,0.00,CLR,,0.00,WeatherDisplay:10.37,2013-04-25 16:01:00,
2013-04-25 12:15:00,57.9,39.4,30.29,North,352,2.0,13.0,50,0.00,CLR,,0.00,WeatherDisplay:10.37,2013-04-25 16:15:00,
2013-04-25 12:31:00,58.6,39.5,30.29,North,352,1.0,13.0,49,0.00,CLR,,0.00,WeatherDisplay:10.37,2013-04-25 16:31:00,
2013-04-25 12:45:00,59.2,39.5,30.28,North,5,2.0,10.0,48,0.00,CLR,,0.00,WeatherDisplay:10.37,2013-04-25 16:45:00,
2013-04-25 13:01:00,60.2,39.3,30.28,NNW,333,1.0,12.0,46,0.00,CLR,,0.00,WeatherDisplay:10.37,2013-04-25 17:01:00,
2013-04-25 13:15:00,60.8,38.7,30.28,North,11,2.0,13.0,44,0.00,CLR,,0.00,WeatherDisplay:10.37,2013-04-25 17:15:00,
2013-04-25 13:31:00,61.5,38.1,30.27,NE,36,2.0,7.0,42,0.00,CLR,,0.00,WeatherDisplay:10.37,2013-04-25 17:31:00,
2013-04-25 13:45:00,62.4,37.8,30.27,NNE,25,1.0,8.0,40,0.00,CLR,,0.00,WeatherDisplay:10.37,2013-04-25 17:45:00,
2013-04-25 14:01:00,63.4,38.0,30.27,NW,317,1.0,7.0,39,0.00,CLR,,0.00,WeatherDisplay:10.37,2013-04-25 18:01:00,
2013-04-25 14:15:00,63.5,36.0,30.26,NNW,337,1.0,9.0,36,0.00,CLR,,0.00,WeatherDisplay:10.37,2013-04-25 18:15:00,
2013-04-25 14:31:00,64.3,36.0,30.26,NNE,19,5.0,7.0,35,0.00,CLR,,0.00,WeatherDisplay:10.37,2013-04-25 18:31:00,
2013-04-25 14:45:00,64.9,40.0,30.25,WSW,245,3.0,9.0,40,0.00,CLR,,0.00,WeatherDisplay:10.37,2013-04-25 18:45:00,
2013-04-25 15:01:00,65.8,35.8,30.25,North,360,1.0,6.0,33,0.00,CLR,,0.00,WeatherDisplay:10.37,2013-04-25 19:01:00,
2013-04-25 15:15:00,66.3,37.1,30.25,North,5,3.0,8.0,34,0.00,CLR,,0.00,WeatherDisplay:10.37,2013-04-25 19:15:00,
2013-04-25 15:31:00,66.2,36.2,30.24,NNW,341,2.0,6.0,33,0.00,CLR,,0.00,WeatherDisplay:10.37,2013-04-25 19:31:00,
2013-04-25 15:45:00,67.4,33.1,30.24,NW,323,5.0,7.0,28,0.00,CLR,,0.00,WeatherDisplay:10.37,2013-04-25 19:45:00,
2013-04-25 16:01:00,67.4,34.9,30.24,NNW,334,0.0,9.0,30,0.00,CLR,,0.00,WeatherDisplay:10.37,2013-04-25 20:01:00,
2013-04-25 16:15:00,67.3,33.0,30.23,NNW,333,2.0,8.0,28,0.00,CLR,,0.00,WeatherDisplay:10.37,2013-04-25 20:15:00,
2013-04-25 16:31:00,67.5,32.3,30.23,WNW,295,0.0,7.0,27,0.00,CLR,,0.00,WeatherDisplay:10.37,2013-04-25 20:31:00,
2013-04-25 16:45:00,68.2,32.9,30.22,WSW,249,2.0,7.0,27,0.00,CLR,,0.00,WeatherDisplay:10.37,2013-04-25 20:45:00,
2013-04-25 17:01:00,68.1,30.9,30.22,WSW,240,2.0,6.0,25,0.00,CLR,,0.00,WeatherDisplay:10.37,2013-04-25 21:01:00,
2013-04-25 17:15:00,67.3,31.2,30.22,North,352,1.0,7.0,26,0.00,CLR,,0.00,WeatherDisplay:10.37,2013-04-25 21:15:00,
2013-04-25 17:31:00,67.0,31.9,30.22,NNE,12,1.0,7.0,27,0.00,CLR,,0.00,WeatherDisplay:10.37,2013-04-25 21:31:00,
2013-04-25 17:45:00,67.4,30.3,30.22,NNE,26,1.0,5.0,25,0.00,CLR,,0.00,WeatherDisplay:10.37,2013-04-25 21:45:00,
2013-04-25 18:01:00,67.3,32.1,30.22,NNE,29,0.0,4.0,27,0.00,CLR,,0.00,WeatherDisplay:10.37,2013-04-25 22:01:00,
2013-04-25 18:15:00,67.5,32.3,30.22,NNE,22,0.0,4.0,27,0.00,CLR,,0.00,WeatherDisplay:10.37,2013-04-25 22:15:00,
2013-04-25 18:31:00,67.5,32.3,30.22,NNE,17,1.0,3.0,27,0.00,CLR,,0.00,WeatherDisplay:10.37,2013-04-25 22:31:00,
2013-04-25 18:45:00,67.1,32.0,30.22,NNE,17,1.0,3.0,27,0.00,CLR,,0.00,WeatherDisplay:10.37,2013-04-25 22:45:00,
2013-04-25 19:01:00,66.7,33.4,30.22,NNE,17,0.0,2.0,29,0.00,CLR,,0.00,WeatherDisplay:10.37,2013-04-25 23:01:00,
2013-04-25 19:15:00,65.8,35.9,30.23,NNE,17,0.0,1.0,33,0.00,CLR,,0.00,WeatherDisplay:10.37,2013-04-25 23:15:00,
2013-04-25 19:31:00,64.7,37.8,30.23,NNE,17,0.0,0.0,37,0.00,CLR,,0.00,WeatherDisplay:10.37,2013-04-25 23:31:00,
2013-04-25 19:45:00,62.2,37.6,30.23,NNE,17,0.0,0.0,40,0.00,CLR,,0.00,WeatherDisplay:10.37,2013-04-25 23:45:00,
2013-04-25 20:01:00,60.1,38.7,30.24,NNE,17,0.0,0.0,45,0.00,CLR,,0.00,WeatherDisplay:10.37,2013-04-26 00:01:00,
2013-04-25 20:15:00,58.2,38.6,30.24,NNE,17,0.0,0.0,48,0.00,CLR,,0.00,WeatherDisplay:10.37,2013-04-26 00:15:00,
2013-04-25 20:31:00,56.5,39.6,30.25,NNE,17,0.0,0.0,53,0.00,CLR,,0.00,WeatherDisplay:10.37,2013-04-26 00:31:00,
2013-04-25 20:45:00,54.8,38.9,30.26,NNE,17,0.0,0.0,55,0.00,CLR,,0.00,WeatherDisplay:10.37,2013-04-26 00:45:00,
2013-04-25 21:01:00,53.0,39.0,30.26,NNE,17,0.0,0.0,59,0.00,CLR,,0.00,WeatherDisplay:10.37,2013-04-26 01:01:00,
2013-04-25 21:15:00,51.6,39.4,30.27,NNE,17,0.0,0.0,63,0.00,CLR,,0.00,WeatherDisplay:10.37,2013-04-26 01:15:00,
2013-04-25 21:31:00,50.1,39.2,30.28,NNE,17,0.0,0.0,66,0.00,CLR,,0.00,WeatherDisplay:10.37,2013-04-26 01:31:00,
2013-04-25 21:45:00,48.9,38.8,30.29,NNE,17,0.0,0.0,68,0.00,CLR,,0.00,WeatherDisplay:10.37,2013-04-26 01:45:00,
2013-04-25 22:01:00,47.8,38.8,30.30,NNE,17,0.0,0.0,71,0.00,CLR,,0.00,WeatherDisplay:10.37,2013-04-26 02:01:00,
2013-04-25 22:15:00,46.9,38.0,30.30,NNE,17,0.0,0.0,71,0.00,CLR,,0.00,WeatherDisplay:10.37,2013-04-26 02:15:00,
2013-04-25 22:31:00,46.2,38.4,30.31,North,358,0.0,5.0,74,0.00,CLR,,0.00,WeatherDisplay:10.37,2013-04-26 02:31:00,
2013-04-25 22:45:00,45.9,38.7,30.31,North,354,0.0,0.0,76,0.00,CLR,,0.00,WeatherDisplay:10.37,2013-04-26 02:45:00,
2013-04-25 23:01:00,45.5,38.7,30.31,North,354,0.0,0.0,77,0.00,CLR,,0.00,WeatherDisplay:10.37,2013-04-26 03:01:00,
2013-04-25 23:15:00,45.1,39.0,30.31,North,354,0.0,0.0,79,0.00,CLR,,0.00,WeatherDisplay:10.37,2013-04-26 03:15:00,
2013-04-25 23:31:00,44.4,38.3,30.31,North,354,0.0,0.0,79,0.00,CLR,,0.00,WeatherDisplay:10.37,2013-04-26 03:31:00,
2013-04-25 23:45:00,44.0,38.2,30.31,North,354,0.0,0.0,80,0.00,CLR,,0.00,WeatherDisplay:10.37,2013-04-26 03:45:00,